Weather observations for the past three days for
Missoula, Missoula International Airport
Metric (Imperial)
Date Time (mdt) Wind (kph) Vis. (km) Weather Sky Cond. Temperature (ºC) Relative Humidity Wind Chill (°C) Heat Index (°C) Pressure Precipitation (cm)
Air Dwpt 6 hour altimeter (cm) sea level (mb) 1 hr 3 hr 6 hr
Max. Min.
24 22:53 NW 6 16.09 Fair CLR 11.1 4.4 64% 75.51 1006.6
24 21:53 N 13 16.09 Fair CLR 13.3 3.3 51% 75.49 1006.2
24 20:53 N 17 16.09 Partly Cloudy SCT085 14.4 4.4 51% 75.46 1006.0
24 19:53 NW 11 16.09 Partly Cloudy SCT085 17.2 1.1 34% 75.44 1005.5
24 18:53 W 13 16.09 Mostly Cloudy BKN085 17.2 2.8 38% 75.46 1005.7
24 17:53 SE 11 16.09 Fair CLR 17.8 1.7 18.9 12.2 34% 75.49 1006.2
24 16:53 Vrbl 6 16.09 Mostly Cloudy BKN110 17.2 1.7 35% 75.57 1007.1
24 15:53 W 9 16.09 Light Rain SCT070 OVC100 16.1 2.8 41% 75.64 1008.3
24 14:53 E 6 16.09 Mostly Cloudy BKN100 16.1 2.8 41% 75.67 1008.7
24 13:53 Calm 16.09 Overcast FEW065 OVC100 15 2.8 44% 75.72 1009.6
24 12:53 SE 6 16.09 Partly Cloudy FEW060 SCT080 15 3.3 46% 75.77 1009.9
24 11:53 SE 6 16.09 Partly Cloudy SCT065 12.2 2.2 12.2 3.9 51% 75.84 1011.2
24 10:53 SE 11 16.09 Fair CLR 9.4 2.2 61% 8 75.9 1012.3
24 09:53 SE 9 16.09 Mostly Cloudy BKN065 7.2 1.7 68% 6 75.97 1013.4
24 08:53 SE 7 16.09 Overcast OVC060 5.6 1.1 73% 4 76.02 1014.3
24 07:53 SE 9 16.09 Overcast OVC055 4.4 1.1 79% 2 76.02 1014.3
24 06:53 S 6 16.09 Overcast OVC055 5 1.7 79% 76.02 1013.9
24 05:53 SE 6 16.09 Overcast OVC050 3.9 1.7 7.8 3.3 86% 76.02 1014.2
24 04:53 E 13 16.09 Fair CLR 4.4 0.6 77% 2 76.05 1014.3
24 03:53 SE 11 16.09 Fair CLR 4.4 1.1 79% 2 76.07 1014.9
24 02:53 SE 13 16.09 Fair CLR 5.6 1.1 73% 3 76.12 1015.4
24 01:53 SE 11 16.09 Fair CLR 6.1 1.7 74% 4 76.15 1015.8
24 00:53 S 7 16.09 Partly Cloudy FEW060 SCT100 7.8 1.1 63% 7 76.2 1016.5
23 23:53 NW 7 16.09 Overcast OVC060 7.8 3.3 13.9 7.2 73% 7 76.23 1016.8 0.03
23 22:53 Calm 16.09 Overcast OVC060 9.4 1.7 59% 76.23 1017.0
23 21:53 SW 7 16.09 Overcast OVC060 10 2.8 61% 9 76.23 1017.3
23 20:53 W 11 16.09 Overcast BKN055 OVC070 10 5 71% 9 76.2 1017.0 0.03
23 19:53 NE 7 11.27 Light Rain FEW027 BKN039 OVC050 10 3.3 63% 9 76.17 1017.0 0.03
23 18:53 W 17 16.09 Overcast BKN050 OVC065 12.2 2.8 53% 76.12 1016.0
23 17:53 S 22 16.09 Mostly Cloudy FEW047 BKN060 13.3 5 13.3 8.3 57% 76.12 1015.9
23 16:53 S 24 16.09 Partly Cloudy SCT050 13.3 5.6 60% 76.15 1016.2
23 15:53 S 30 16.09 Mostly Cloudy BKN085 12.2 5 62% 76.17 1016.7
23 14:53 S 28 16.09 Partly Cloudy SCT080 11.1 4.4 64% 76.17 1016.9
23 13:53 S 19 16.09 Mostly Cloudy BKN070 11.7 5.6 66% 76.2 1017.1
23 12:53 SE 13 16.09 Mostly Cloudy BKN060 9.4 4.4 71% 8 76.2 1017.4
23 11:53 SE 13 16.09 Partly Cloudy SCT017 8.3 4.4 8.3 0.6 77% 6 76.2 1017.6
23 10:53 SE 9 16.09 Overcast OVC011 6.1 3.3 82% 4 76.2 1017.6
23 09:53 SE 9 16.09 Overcast BKN011 OVC075 4.4 2.8 89% 2 76.17 1017.3
23 08:53 SE 7 8.05 Fog/Mist OVC008 2.2 1.1 93% 0 76.15 1017.0
23 07:53 Calm 3.22 Fog/Mist SCT005 BKN011 OVC034 1.1 0.6 97% 76.07 1016.2
23 06:53 Calm 3.22 Fog/Mist BKN007 OVC013 0.6 0 96% 76.02 1015.3
23 05:53 Calm 14.48 Light Rain OVC005 0.6 0 1.1 0.6 96% 75.97 1014.5 0.03 0.56
23 04:53 Calm 4.83 Light Snow Fog/Mist FEW005 SCT023 OVC028 0.6 0 96% 75.95 1014.2 0.05
23 03:53 SE 6 14.48 Light Snow BKN006 OVC026 1.1 0 92% 75.95 1013.8 0.05
23 02:53 E 6 8.05 Unknown Precip Fog/Mist SCT006 OVC012 1.1 0.6 97% 75.92 1013.3 0.1 0.43
23 01:53 E 6 2.41 Light Snow Fog/Mist FEW006 OVC009 0.6 0 96% 75.92 1013.0 0.18
23 00:53 E 7 1.61 Light Snow Fog/Mist VV007 0.6 0 96% -1 75.9 1012.8 0.15
22 23:53 E 6 2.01 Light Snow Fog/Mist OVC006 0.6 0 6.7 0.6 96% 75.87 1012.8 0.25 1.3
22 22:53 SE 7 2.82 Light Snow Fog/Mist OVC006 1.1 0.6 97% -1 75.87 1012.9 0.28
22 21:53 S 9 11.27 Light Rain FEW010 OVC017 3.3 2.2 93% 1 75.82 1012.0 0.28
22 20:53 SE 13 4.83 Rain Fog/Mist OVC020 3.9 3.3 96% 1 75.79 1011.6 0.18 0.48
22 19:53 S 9 4.83 Light Rain Fog/Mist BKN024 OVC030 5 3.3 89% 3 75.79 1011.3 0.15
22 18:53 S 11 4.02 Light Rain OVC027 6.1 3.3 82% 4 75.74 1010.5 0.15
22 17:53 NW 17 16.09 Light Rain OVC033 6.7 3.9 14.4 6.7 83% 4 75.69 1009.7 0.05
22 16:53 W 22 16.09 Light Rain BKN029 OVC042 7.2 5 86% 4 75.62 1008.5 0.05
22 15:53 W 33 16.09 Light Rain and Breezy BKN037 BKN046 OVC055 9.4 6.1 80% 6 75.51 1006.7
22 14:53 N 22 16.09 Light Rain FEW028 BKN040 OVC110 11.7 6.1 69% 75.44 1005.6
22 13:53 W 9 16.09 Overcast FEW046 SCT055 OVC070 12.2 6.7 69% 75.44 1005.4
22 12:53 Calm 16.09 Mostly Cloudy FEW032 SCT045 BKN110 12.2 6.1 67% 75.44 1005.6
22 11:53 E 11 16.09 Light Rain BKN048 OVC055 10.6 6.1 10.6 8.3 74% 75.46 1006.1 0.2
22 10:53 SE 7 16.09 Light Rain OVC060 8.9 6.7 86% 8 75.49 1006.6 0.05
22 09:53 S 6 14.48 Light Rain SCT034 OVC050 8.3 6.1 86% 75.51 1006.8 0.05
22 08:53 S 9 9.66 Light Rain Fog/Mist BKN042 OVC050 8.3 6.1 86% 7 75.49 1006.6 0.08 0.1
22 07:53 SE 17 12.87 Light Rain OVC040 8.3 6.7 90% 6 75.51 1006.4 0.03
22 06:53 Calm 16.09 Overcast BKN075 OVC095 8.9 4.4 74% 75.49 1006.1
22 05:53 Calm 16.09 Overcast SCT041 OVC070 8.9 4.4 10.6 8.3 74% 75.54 1006.6
22 04:53 Calm 16.09 Overcast FEW045 OVC075 8.9 5 77% 75.59 1007.5
22 03:53 E 11 16.09 Overcast BKN050 BKN070 OVC085 10 4.4 68% 9 75.64 1007.9
22 02:53 NW 9 16.09 Overcast SCT075 OVC090 9.4 3.3 66% 8 75.69 1008.6
22 01:53 N 9 16.09 Overcast BKN065 OVC075 10 3.9 66% 9 75.72 1009.3
22 00:53 N 11 16.09 Overcast FEW055 OVC085 10.6 3.9 64% 75.77 1009.6
21 23:53 NW 6 16.09 Overcast BKN055 OVC070 10 4.4 15 10 68% 75.79 1010.4
Date Time (mdt) Wind (kph) Vis. (km) Weather Sky Cond. Air Dwpt Max. Min. Relative Humidity Wind Chill (°C) Heat Index (°C) altimeter (cm) sea level (mb) 1 hr 3 hr 6 hr
6 hour
Temperature (ºC) Pressure Precipitation (cm)